CAPE
462 507 497 596 654 591 551 558 554 497 403 360 442 423 419 427 440 438 429 472 639 792 972 1080 1032 1192 1454 1384 1294 1144 1022 1168 1378 1118 780 593 539 258 245 562 824 433 487
551 515 538 633 695 698 599 563 553 519 511 549 587 557 517 488 402 308 236 200 275 464 660 749 1015 940 821 743 727 791 922 914 899 892 624 513 653 591 453 370 303 255 613
556 575 578 650 720 739 755 718 699 700 699 687 679 609 565 502 327 137 117 150 173 205 241 204 190 125 188 281 367 575 633 769 783 698 575 552 696 780 345 170 240 378 658
617 607 597 703 751 839 914 920 884 901 895 839 799 750 660 400 168 78 22 7 9 32 77 71 88 20 4 0 5 44 196 332 384 546 493 578 982 805 115 471 453 394 582
660 705 773 828 843 865 868 887 912 901 915 938 803 616 447 200 91 17 0 0 0 1 3 1 0 0 0 0 0 8 79 137 145 234 310 550 533 295 285 219 443 360 878
848 867 960 1046 986 919 843 798 827 909 942 748 443 450 241 113 26 0 0 0 0 0 0 0 0 0 0 0 0 0 0 0 107 221 366 632 512 516 304 171 535 540 898
990 1109 1294 1239 1174 1065 1052 1000 857 804 669 410 363 275 131 24 0 0 0 0 0 0 0 0 0 0 0 0 0 0 0 0 0 1 212 631 532 411 503 400 326 393 641
1115 1376 1489 1459 1376 1294 1155 865 565 341 203 178 206 142 19 0 0 0 0 0 0 0 0 0 0 0 0 0 0 0 0 0 0 0 280 556 519 589 436 217 603 334 310
1236 1225 1128 994 904 730 530 291 185 144 48 44 32 3 4 0 0 0 0 0 0 0 0 0 0 0 0 0 0 0 0 0 0 0 89 461 414 739 773 476 415 490 520
371 409 385 331 203 148 147 98 56 1 0 5 2 31 35 1 0 0 0 0 0 0 0 0 0 0 0 0 0 0 0 0 0 0 0 111 517 637 888 1009 921 641 672
107 34 119 45 0 0 5 0 0 0 0 20 56 178 174 96 5 2 18 0 1 0 0 0 0 0 0 0 0 0 0 0 0 0 0 7 149 190 201 212 379 551 503
280 187 189 89 0 0 0 0 0 20 103 162 229 266 277 243 224 80 101 100 57 26 12 15 7 6 0 0 0 0 0 0 0 0 0 0 10 52 0 0 37 452 396
340 361 326 250 24 0 17 0 34 156 233 300 415 355 348 393 187 275 102 23 8 3 14 34 32 12 0 0 0 0 0 0 0 0 0 0 0 0 0 0 0 97 383
373 273 211 237 165 53 57 49 84 260 408 494 465 263 121 105 2 0 0 0 0 0 0 7 11 0 0 0 0 0 0 0 0 0 0 0 0 0 0 0 0 0 17
286 205 105 33 77 35 5 100 159 246 453 567 481 298 27 30 0 0 0 0 0 0 0 0 2 0 0 0 0 0 0 0 0 0 0 0 0 0 0 0 0 0 0
315 298 282 21 142 94 91 42 55 52 52 301 234 51 6 0 21 21 8 1 0 1 0 0 0 0 0 0 0 0 0 0 0 0 0 0 0 0 0 0 0 0 0
324 464 413 583 470 118 217 224 60 0 1 33 10 0 0 2 21 1 0 0 0 0 0 0 0 0 0 0 0 0 0 0 0 0 0 0 0 0 0 0 0 0 0
389 605 592 30 184 156 148 131 50 0 0 0 0 0 0 0 0 0 0 0 0 0 0 0 0 0 0 0 0 0 0 0 0 0 0 0 0 0 0 0 0 0 0
437 680 454 37 395 99 88 5 0 0 0 0 0 0 0 0 0 0 0 0 0 0 0 0 0 0 0 0 0 0 0 0 0 0 0 0 0 0 0 0 0 0 0
442 279 273 65 84 4 0 0 0 0 0 0 0 0 0 0 0 0 0 0 0 0 0 0 0 0 0 0 0 0 0 0 0 0 0 0 0 0 0 0 0 0 0
19 14 1 47 13 0 0 0 0 0 0 0 0 0 0 0 0 0 0 0 0 0 0 0 0 0 0 0 0 0 0 0 0 0 0 0 0 0 0 0 0 0 0
0 0 0 0 0 0 0 0 0 0 0 0 0 0 0 0 0 0 0 0 0 0 0 0 0 0 0 0 0 0 0 0 0 0 0 0 0 0 0 0 0 0 0
0 0 0 0 0 0 0 0 0 0 0 0 0 0 0 0 0 0 0 0 0 0 0 0 0 0 0 0 0 0 0 0 0 0 0 0 0 0 0 0 0 0 0
0 0 0 0 0 0 0 0 0 0 0 0 0 0 0 0 0 0 0 0 0 0 0 0 0 0 0 0 0 0 0 0 0 0 0 0 0 0 0 0 0 0 0
0 0 0 0 0 0 0 0 0 0 0 0 0 0 0 0 0 0 0 0 0 0 0 0 0 0 0 0 0 0 0 0 3 0 0 0 0 0 0 0 0 0 0
0 0 0 0 0 0 0 0 0 0 0 0 0 0 0 0 0 0 0 0 0 0 0 0 0 0 0 0 0 0 0 4 3 2 1 0 0 0 0 0 0 0 0
CIN
-16 -39 -44 -47 -45 -71 -90 -82 -75 -95 -128 -146 -128 -140 -149 -153 -147 -127 -111 -84 -44 -34 -28 -31 -42 -34 -21 -22 -31 -36 -49 -30 -3 -7 -24 -36 -29 -69 -92 -60 -46 -77 -61
-47 -44 -43 -51 -61 -68 -86 -103 -93 -99 -105 -95 -93 -105 -130 -121 -125 -129 -128 -125 -92 -65 -58 -59 -38 -49 -65 -57 -64 -59 -50 -52 -32 -11 -22 -32 -27 -43 -83 -109 -104 -110 -60
-44 -42 -48 -58 -58 -63 -58 -52 -64 -62 -54 -58 -65 -97 -111 -105 -142 -191 -177 -170 -165 -141 -97 -103 -117 -146 -135 -114 -90 -59 -43 -35 -45 -40 -35 -44 -49 -50 -75 -101 -129 -105 -61
-58 -43 -46 -48 -51 -45 -39 -38 -38 -25 -31 -36 -46 -67 -74 -140 -198 -233 -320 -265 -328 -269 -184 -185 -168 -277 -234 -0 -213 -157 -98 -73 -70 -60 -78 -80 -39 -31 -134 -77 -55 -74 -69
-37 -25 -35 -42 -54 -64 -70 -62 -43 -36 -21 -20 -66 -105 -124 -194 -250 -365 -0 -0 -0 -106 -95 -104 -0 -0 -0 -0 -0 -63 -168 -120 -108 -103 -100 -74 -71 -85 -91 -98 -72 -53 -20
-20 -23 -31 -25 -40 -55 -66 -66 -55 -50 -26 -60 -141 -122 -186 -241 -344 -0 -0 -0 -0 -0 -0 -0 -0 -0 -0 -0 -0 -0 -0 -0 -166 -141 -102 -85 -83 -67 -81 -93 -75 -60 -12
-18 -11 -0 -3 -16 -24 -17 -17 -45 -45 -76 -142 -157 -168 -242 -340 -0 -0 -0 -0 -0 -0 -0 -0 -0 -0 -0 -0 -0 -0 -0 -0 -0 -269 -153 -85 -79 -88 -84 -78 -76 -59 -51
-34 -3 -0 -0 -3 -6 -12 -52 -121 -172 -213 -230 -211 -225 -315 -0 -0 -0 -0 -0 -0 -0 -0 -0 -0 -0 -0 -0 -0 -0 -0 -0 -0 -0 -126 -76 -74 -61 -66 -107 -62 -84 -79
-41 -36 -41 -57 -60 -102 -136 -209 -234 -254 -309 -309 -298 -369 -286 -0 -0 -0 -0 -0 -0 -0 -0 -0 -0 -0 -0 -0 -0 -0 -0 -0 -0 -0 -56 -46 -58 -20 -19 -36 -48 -44 -66
-164 -165 -175 -199 -251 -272 -288 -296 -300 -45 -0 -366 -336 -287 -258 -11 -0 -0 -0 -0 -0 -0 -0 -0 -0 -0 -0 -0 -0 -0 -0 -0 -0 -0 -0 -64 -18 -14 -10 -7 -12 -22 -24
-211 -255 -234 -311 -0 -0 -241 -0 -0 -0 -0 -294 -255 -205 -188 -208 -73 -72 -210 -33 -70 -0 -0 -0 -0 -0 -0 -0 -0 -0 -0 -0 -0 -0 -0 -20 -27 -18 -28 -30 -22 -13 -12
-137 -172 -195 -227 -0 -0 -0 -0 -0 -164 -230 -214 -170 -171 -176 -168 -155 -195 -187 -164 -178 -187 -179 -163 -89 -93 -0 -0 -0 -0 -0 -0 -0 -0 -0 -0 -14 -23 -0 -0 -25 -12 -24
-114 -122 -142 -165 -115 -0 -235 -0 -236 -204 -164 -145 -119 -127 -119 -107 -173 -128 -162 -178 -163 -22 -177 -153 -156 -184 -0 -0 -0 -0 -0 -0 -0 -0 -0 -0 -0 -0 -0 -0 -0 -51 -4
-107 -98 -138 -172 -191 -214 -220 -234 -200 -157 -137 -101 -86 -102 -118 -106 -47 -0 -0 -0 -0 -0 -0 -176 -171 -0 -0 -0 -0 -0 -0 -0 -0 -0 -0 -0 -0 -0 -0 -0 -0 -0 -40
-107 -103 -116 -196 -188 -259 -323 -185 -177 -142 -111 -79 -77 -66 -130 -108 -13 -0 -0 -0 -0 -0 -0 -0 -95 -0 -0 -0 -0 -0 -0 -0 -0 -0 -0 -0 -0 -0 -0 -0 -0 -0 -0
-106 -133 -142 -184 -166 -162 -123 -163 -151 -146 -114 -76 -80 -119 -146 -0 -133 -139 -158 -47 -0 -108 -0 -0 -0 -0 -0 -0 -0 -0 -0 -0 -0 -0 -0 -0 -0 -0 -0 -0 -0 -0 -0
-111 -129 -130 -104 -130 -147 -130 -132 -126 -0 -10 -111 -168 -0 -16 -92 -195 -14 -0 -0 -0 -0 -0 -0 -0 -0 -0 -0 -0 -0 -0 -0 -0 -0 -0 -0 -0 -0 -0 -0 -0 -0 -0
-134 -99 -127 -173 -139 -174 -122 -136 -153 -6 -0 -0 -0 -0 -0 -0 -0 -0 -0 -0 -0 -0 -0 -0 -0 -0 -0 -0 -0 -0 -0 -0 -0 -0 -0 -0 -0 -0 -0 -0 -0 -0 -0
-122 -105 -125 -202 -115 -167 -138 -228 -0 -0 -0 -0 -0 -0 -0 -0 -0 -0 -0 -0 -0 -0 -0 -0 -0 -0 -0 -0 -0 -0 -0 -0 -0 -0 -0 -0 -0 -0 -0 -0 -0 -0 -0
-211 -212 -136 -214 -193 -99 -0 -0 -0 -0 -0 -0 -0 -0 -0 -0 -0 -0 -0 -0 -0 -0 -0 -0 -0 -0 -0 -0 -0 -0 -0 -0 -0 -0 -0 -0 -0 -0 -0 -0 -0 -0 -0
-368 -308 -303 -193 -256 -0 -0 -0 -0 -0 -0 -0 -0 -0 -0 -0 -0 -0 -0 -0 -0 -0 -0 -0 -0 -0 -0 -0 -0 -0 -0 -0 -0 -0 -0 -0 -0 -0 -0 -0 -0 -0 -0
-0 -0 -0 -0 -0 -0 -0 -0 -0 -0 -0 -0 -0 -0 -0 -0 -0 -0 -0 -0 -0 -0 -0 -0 -0 -0 -0 -0 -0 -0 -0 -0 -0 -0 -0 -0 -0 -0 -0 -0 -0 -0 -0
-0 -0 -0 -0 -0 -0 -0 -0 -0 -0 -0 -0 -0 -0 -0 -0 -0 -0 -0 -0 -0 -0 -0 -0 -0 -0 -0 -0 -0 -0 -0 -0 -0 -0 -0 -0 -0 -0 -0 -0 -0 -0 -0
-0 -0 -0 -0 -0 -0 -0 -0 -0 -0 -0 -0 -0 -0 -0 -0 -0 -0 -0 -0 -0 -0 -0 -0 -0 -0 -0 -0 -0 -0 -0 -0 -0 -1 -0 -0 -0 -0 -0 -0 -0 -0 -0
-0 -0 -0 -0 -0 -0 -0 -0 -0 -0 -0 -0 -0 -0 -0 -0 -0 -0 -0 -0 -0 -0 -0 -0 -0 -0 -0 -0 -0 -0 -0 -0 -24 -0 -0 -0 -0 -0 -0 -0 -0 -0 -0
-0 -0 -0 -0 -0 -0 -0 -0 -0 -0 -0 -0 -0 -0 -0 -0 -0 -0 -0 -0 -0 -0 -0 -0 -0 -0 -0 -0 -0 -0 -0 -1 -2 -1 -0 -0 -0 -0 -0 -0 -0 -0 -0
Wind_Speed
9 14 15 15 16 16 17 17 17 18 19 19 20 20 21 22 22 22 23 23 24 24 24 24 24 24 23 22 21 21 20 20 19 19 17 16 16 19 21 22 20 20 18
14 13 14 14 16 16 16 16 17 18 17 18 18 20 20 21 22 23 23 24 24 25 25 24 24 24 23 23 22 21 21 20 19 17 17 15 14 15 18 20 20 19 18
11 13 14 15 15 15 15 15 15 15 16 15 17 19 20 21 22 23 23 23 24 25 26 26 25 25 24 23 22 22 21 20 18 16 15 16 17 14 16 17 19 19 18
11 13 14 14 14 14 14 14 14 14 15 16 16 18 19 20 21 22 22 23 24 25 25 25 25 25 25 24 24 23 21 20 19 18 17 17 13 12 14 18 19 18 16
13 14 14 14 14 14 14 14 14 14 14 15 16 17 18 19 20 21 23 23 23 24 24 24 24 24 24 24 24 23 23 23 21 20 17 12 12 13 16 9 10 16 15
14 14 14 14 14 14 15 15 15 14 15 15 16 17 18 19 20 22 22 23 23 23 23 23 24 24 24 24 24 24 24 24 23 21 17 11 10 10 13 12 12 10 14
13 13 13 15 15 15 15 15 14 15 15 16 16 17 18 19 20 21 21 22 22 23 23 24 25 26 26 26 26 26 26 26 25 23 20 11 11 13 12 13 7 8 8
13 14 13 13 14 14 14 15 15 15 15 16 16 16 17 19 20 20 21 22 22 23 24 25 26 26 27 27 27 27 27 27 27 25 25 13 13 17 14 12 9 6 6
13 14 13 13 14 14 15 15 14 15 15 15 15 16 17 19 19 20 21 22 22 24 24 25 27 27 27 27 27 29 29 29 28 27 24 20 18 18 17 16 14 8 9
16 14 14 15 16 15 15 14 14 15 15 16 16 16 18 19 19 19 20 21 21 23 24 24 26 26 26 26 28 30 30 28 28 29 27 20 21 19 19 20 22 21 16
15 15 15 15 14 15 14 15 15 15 15 16 16 16 17 17 18 18 18 20 21 21 22 23 23 24 24 25 27 29 29 27 27 28 27 23 21 22 22 22 20 21 20
15 13 13 13 13 15 15 15 15 15 14 14 15 15 15 15 16 17 17 18 19 19 20 21 22 23 24 24 24 27 28 27 26 26 25 23 21 23 23 25 25 20 20
13 11 11 12 13 13 13 13 12 13 14 14 14 15 14 15 17 16 17 19 20 22 22 23 24 23 23 22 23 23 25 26 25 24 24 24 22 26 29 28 27 26 25
14 11 11 11 12 10 10 10 11 10 11 12 13 14 16 17 19 18 19 21 23 25 25 24 25 24 25 24 21 21 23 22 23 23 23 20 19 20 26 28 27 28 29
13 12 11 12 11 11 9 8 8 8 7 8 10 13 16 17 18 19 20 22 25 25 26 26 25 27 30 31 28 25 23 21 21 22 22 20 19 21 21 23 27 29 29
12 10 9 11 12 12 11 9 11 9 8 7 8 10 13 16 16 19 21 24 26 28 28 27 29 32 35 36 38 35 30 25 23 23 24 24 21 19 21 22 23 23 26
11 10 9 9 10 11 11 10 11 12 12 9 11 16 16 17 18 20 24 27 29 31 32 34 35 36 37 37 37 36 35 34 31 28 28 26 25 22 20 21 23 24 25
8 9 8 6 8 10 10 12 11 11 14 14 14 17 18 19 21 23 26 28 29 31 32 34 35 37 36 37 38 37 36 35 36 36 35 33 30 29 28 23 21 22 24
7 7 3 5 7 9 9 10 12 14 15 16 18 19 19 21 22 25 27 30 33 33 31 33 36 35 36 38 38 37 38 39 40 39 39 39 37 34 33 33 29 27 25
8 7 5 7 8 11 11 12 14 17 17 19 20 21 24 26 28 30 33 35 33 31 32 34 34 36 36 39 41 42 42 41 40 36 35 33 33 33 34 38 38 34 32
14 13 12 10 12 12 13 13 16 19 19 21 24 25 29 32 34 36 35 34 34 33 34 34 34 37 39 41 43 47 44 42 38 38 34 33 34 34 35 37 37 38 36
15 16 17 17 15 14 15 17 20 20 20 22 25 28 31 32 33 33 33 33 33 35 37 38 38 39 37 39 42 44 50 48 40 36 36 36 36 36 38 38 37 36 37
17 16 17 17 18 18 20 20 21 21 23 25 30 30 30 30 31 32 33 34 34 34 36 37 39 40 42 39 38 40 48 50 47 40 41 39 40 41 41 40 40 42 40
16 16 16 16 17 18 20 22 23 24 26 26 27 26 28 31 32 33 34 34 34 35 37 38 39 39 40 42 38 37 36 38 46 54 43 48 45 47 46 43 45 43 40
18 18 18 20 21 21 22 23 23 24 24 25 26 29 31 31 32 34 35 36 36 36 38 39 39 39 38 37 38 39 40 42 40 47 59 53 51 48 47 44 43 42 41
19 20 20 22 23 22 23 23 23 25 26 27 29 32 34 34 34 34 34 33 34 35 38 37 38 38 40 40 40 41 41 42 46 46 51 56 56 50 45 43 39 40 39
Wind_Direction
64 80 81 73 70 68 66 63 59 54 52 47 41 34 31 28 24 21 18 12 13 15 14 13 10 6 3 4 359 351 345 343 342 340 348 358 352 341 330 331 336 338 333
85 80 78 73 72 70 68 64 64 59 49 42 34 34 26 17 16 16 20 28 25 18 24 25 23 15 4 4 5 357 351 347 346 348 347 359 8 358 340 335 335 337 331
75 76 78 76 74 70 68 64 56 48 40 29 30 28 28 32 25 25 20 12 8 6 5 7 14 26 27 18 10 5 2 355 352 351 355 348 343 353 353 344 338 329 326
76 77 79 77 72 68 65 57 50 45 38 34 28 24 28 31 30 26 22 15 10 9 5 7 3 9 15 20 21 18 12 8 1 353 346 346 5 8 357 345 335 336 329
82 79 79 75 71 67 62 57 51 42 28 30 30 25 30 31 31 27 17 15 15 15 14 13 11 9 10 9 7 4 0 358 356 356 360 16 9 356 347 10 13 337 324
84 84 79 77 73 64 60 53 50 41 41 29 24 28 30 28 22 18 16 14 13 14 12 8 5 5 2 358 355 351 347 348 348 350 5 32 32 20 7 3 4 22 322
85 78 74 76 67 64 60 56 48 45 40 39 39 36 30 24 19 19 19 20 18 13 4 0 353 346 343 343 339 339 338 333 336 339 345 15 11 360 9 357 39 81 96
82 79 72 68 67 65 63 63 59 54 48 48 44 37 33 28 25 24 23 19 14 10 2 357 353 348 344 341 338 334 331 329 325 329 328 360 357 348 359 3 19 62 102
78 78 68 60 64 64 71 65 60 59 57 53 49 46 38 33 33 30 26 24 20 12 7 5 356 353 349 345 342 334 328 324 320 321 331 336 339 343 347 339 339 349 347
87 76 68 70 70 67 66 63 64 61 59 56 53 45 37 30 29 29 24 21 22 16 11 11 7 5 0 353 346 338 328 327 321 313 320 331 329 334 337 334 320 314 317
85 82 79 72 62 61 63 67 67 65 62 56 47 41 37 34 35 30 26 20 14 13 10 10 11 11 8 1 353 347 342 337 333 323 320 328 326 325 324 327 327 318 313
99 87 81 71 68 75 70 68 70 63 54 44 39 40 40 40 31 22 19 18 16 14 9 4 3 3 3 2 359 353 347 345 340 335 333 333 328 323 323 318 316 319 315
105 84 81 77 80 78 66 64 60 52 42 43 41 39 38 31 23 20 15 10 10 3 0 358 355 356 356 356 356 356 353 348 348 344 337 333 331 318 310 313 311 307 306
112 91 91 90 85 70 62 70 65 52 44 43 42 38 31 23 14 15 10 6 1 357 355 353 350 351 349 349 350 349 348 348 348 346 343 344 341 333 317 312 310 306 301
118 108 95 79 62 54 49 44 62 42 42 41 38 28 20 19 11 9 6 0 357 355 351 348 346 343 338 333 335 337 339 339 339 338 338 336 335 331 330 324 312 305 301
125 107 97 78 85 63 48 20 20 35 29 38 38 23 12 9 6 1 359 357 355 352 350 349 343 336 330 326 319 322 327 328 326 326 327 327 323 321 320 320 321 315 308
132 120 113 92 61 50 55 37 25 30 22 26 12 0 3 1 360 358 352 349 348 346 343 341 337 332 328 326 323 323 323 324 324 322 318 315 314 311 309 309 310 311 309
120 131 123 105 50 36 39 29 35 29 15 11 5 1 2 0 356 349 346 343 342 340 338 336 335 331 329 327 324 324 325 324 323 322 320 317 312 305 302 300 299 301 304
113 139 104 77 38 22 34 32 25 16 14 8 3 357 358 354 349 344 342 338 336 334 334 333 332 332 329 327 325 324 322 321 320 321 317 317 315 311 304 300 294 291 293
46 47 49 25 21 17 17 22 20 9 3 357 355 353 349 346 343 339 334 333 335 334 333 332 331 330 328 326 322 319 318 317 317 321 322 324 327 326 317 305 300 296 289
37 29 30 31 8 16 11 5 353 347 348 348 347 346 342 338 335 335 335 336 335 334 334 334 331 328 325 324 320 316 314 313 313 314 317 317 319 320 320 317 312 299 295
28 15 7 2 8 10 7 357 344 343 346 348 345 341 340 341 342 343 341 340 339 335 333 331 329 326 324 324 319 316 311 309 309 311 312 312 313 314 314 314 312 310 303
16 11 8 10 8 359 350 346 345 344 341 338 337 338 343 345 345 343 341 340 338 337 334 332 330 327 323 322 322 316 310 306 309 308 307 308 308 308 308 307 307 304 301
17 17 16 12 2 355 350 346 342 339 336 338 339 342 343 343 342 342 341 339 337 335 333 331 329 326 324 320 320 319 315 312 308 303 303 304 304 304 304 303 303 300 299
7 2 359 352 349 349 350 347 345 344 342 341 341 339 338 340 341 340 339 338 337 336 336 334 331 329 327 323 321 317 313 311 309 305 300 300 302 301 301 302 302 300 296
1 358 353 352 349 348 345 344 344 340 338 337 337 337 335 334 336 339 339 340 340 338 337 334 332 330 326 323 319 317 314 311 308 306 303 300 299 300 301 301 302 303 300